| time (UTC) | temp F | wind direction | speed knots | gust knots | rain 1hr in | rain 24hr in | rain mn in | humidity % | barometer mb |
| 20260504221036 | 78 | 195 | 4.3 | 11.3 | 0.00 | 0.00 | 0.00 | 31 | 1010.2 |
| 20260504221016 | 78 | 196 | 4.3 | 11.3 | 0.00 | 0.00 | 0.00 | 31 | 1010.5 |
| 20260504220037 | 79 | 218 | 2.6 | 9.6 | 0.00 | 0.00 | 0.00 | 31 | 1010.3 |
| 20260504220015 | 79 | 222 | 2.6 | 9.6 | 0.00 | 0.00 | 0.00 | 31 | 1010.5 |
| 20260504215017 | 79 | 209 | 4.3 | 11.3 | 0.00 | 0.00 | 0.00 | 30 | 1010.5 |
| 20260504214017 | 79 | 198 | 3.5 | 7.8 | 0.00 | 0.00 | 0.00 | 30 | 1010.7 |
| 20260504213116 | 80 | 223 | 2.6 | 7.0 | 0.00 | 0.00 | 0.00 | 29 | 1010.5 |
| 20260504213017 | 80 | 224 | 2.6 | 7.0 | 0.00 | 0.00 | 0.00 | 29 | 1010.8 |
| 20260504212036 | 80 | 204 | 4.3 | 12.2 | 0.00 | 0.00 | 0.00 | 29 | 1010.4 |
| 20260504212017 | 80 | 205 | 4.3 | 12.2 | 0.00 | 0.00 | 0.00 | 29 | 1010.7 |
| 20260504211136 | 81 | 205 | 4.3 | 12.2 | 0.00 | 0.00 | 0.00 | 28 | 1010.5 |
| 20260504211017 | 81 | 205 | 4.3 | 12.2 | 0.00 | 0.00 | 0.00 | 28 | 1010.7 |
| 20260504210036 | 81 | 194 | 3.5 | 12.2 | 0.00 | 0.00 | 0.00 | 28 | 1010.4 |
| 20260504210017 | 81 | 197 | 3.5 | 12.2 | 0.00 | 0.00 | 0.00 | 28 | 1010.6 |
| 20260504205017 | 82 | 198 | 1.7 | 6.1 | 0.00 | 0.00 | 0.00 | 27 | 1010.8 |
| 20260504204017 | 82 | 216 | 2.6 | 11.3 | 0.00 | 0.00 | 0.00 | 27 | 1010.7 |
| 20260504204015 | 82 | 216 | 2.6 | 11.3 | 0.00 | 0.00 | 0.00 | 27 | 1010.4 |
| 20260504203017 | 82 | 198 | 3.5 | 7.8 | 0.00 | 0.00 | 0.00 | 26 | 1010.8 |
| 20260504202016 | 81 | 208 | 3.5 | 9.6 | 0.00 | 0.00 | 0.00 | 26 | 1010.9 |
| 20260504201056 | 81 | 183 | 2.6 | 12.2 | 0.00 | 0.00 | 0.00 | 26 | 1010.7 |
| 20260504201016 | 81 | 182 | 2.6 | 12.2 | 0.00 | 0.00 | 0.00 | 26 | 1011.0 |
| 20260504200056 | 82 | 202 | 4.3 | 10.4 | 0.00 | 0.00 | 0.00 | 26 | 1010.9 |
| 20260504200017 | 82 | 202 | 4.3 | 9.6 | 0.00 | 0.00 | 0.00 | 26 | 1011.2 |
| 20260504195018 | 82 | 207 | 3.5 | 12.2 | 0.00 | 0.00 | 0.00 | 26 | 1011.0 |
| 20260504194017 | 82 | 208 | 2.6 | 9.6 | 0.00 | 0.00 | 0.00 | 25 | 1011.4 |
| 20260504193018 | 83 | 198 | 3.5 | 12.2 | 0.00 | 0.00 | 0.00 | 26 | 1011.2 |
| 20260504192016 | 83 | 202 | 3.5 | 7.8 | 0.00 | 0.00 | 0.00 | 25 | 1011.5 |
| 20260504191036 | 82 | 219 | 1.7 | 6.1 | 0.00 | 0.00 | 0.00 | 26 | 1011.9 |
| 20260504191018 | 82 | 216 | 1.7 | 6.1 | 0.00 | 0.00 | 0.00 | 26 | 1011.6 |
| 20260504190018 | 82 | 210 | 4.3 | 13.0 | 0.00 | 0.00 | 0.00 | 26 | 1011.8 |
| 20260504190016 | 82 | 214 | 4.3 | 13.0 | 0.00 | 0.00 | 0.00 | 26 | 1012.1 |
| 20260504185018 | 82 | 179 | 2.6 | 7.0 | 0.00 | 0.00 | 0.00 | 27 | 1011.9 |
| 20260504184017 | 81 | 213 | 3.5 | 7.8 | 0.00 | 0.00 | 0.00 | 26 | 1012.4 |
| 20260504183018 | 81 | 196 | 2.6 | 7.8 | 0.00 | 0.00 | 0.00 | 27 | 1012.2 |
| 20260504183016 | 81 | 195 | 2.6 | 7.0 | 0.00 | 0.00 | 0.00 | 27 | 1012.5 |
| 20260504182016 | 81 | 201 | 3.5 | 9.6 | 0.00 | 0.00 | 0.00 | 27 | 1012.6 |
| 20260504181518 | 81 | 105 | 4.3 | 7.8 | 0.00 | 0.00 | 0.00 | 28 | 1012.4 |
| 20260504181016 | 81 | 168 | 3.5 | 7.8 | 0.00 | 0.00 | 0.00 | 27 | 1012.7 |
| 20260504180015 | 80 | 228 | 1.7 | 6.1 | 0.00 | 0.00 | 0.00 | 28 | 1012.9 |
| 20260504175035 | 79 | 190 | 2.6 | 7.8 | 0.00 | 0.00 | 0.00 | 28 | 1013.0 |
| 20260504174017 | 79 | 189 | 2.6 | 8.7 | 0.00 | 0.00 | 0.00 | 28 | 1013.2 |
| 20260504173017 | 78 | 169 | 2.6 | 7.0 | 0.00 | 0.00 | 0.00 | 28 | 1013.3 |
| 20260504172016 | 78 | 234 | 2.6 | 7.0 | 0.00 | 0.00 | 0.00 | 29 | 1013.4 |
| 20260504171038 | 77 | 158 | 2.6 | 8.7 | 0.00 | 0.00 | 0.00 | 29 | 1013.5 |
| 20260504151016 | 64 | 165 | 1.7 | 3.5 | 0.00 | 0.00 | 0.00 | 49 | 1014.8 |
| 20260504141018 | 60 | 116 | 1.7 | 3.5 | 0.00 | 0.00 | 0.00 | 48 | 1015.2 |
| 20260504100139 | 50 | 85 | 0.9 | 1.7 | 0.00 | 0.00 | 0.00 | 59 | 1015.7 |
| 20260504081039 | 51 | 0.0 | 0.0 | 0.00 | 0.00 | 0.00 | 59 | 1016.1 | |
| 20260504050018 | 48 | 0.0 | 0.0 | 0.00 | 0.00 | 0.00 | 64 | 1016.2 | |
| 20260504045018 | 48 | 0.0 | 0.0 | 0.00 | 0.00 | 0.00 | 64 | 1016.2 | |
| 20260504044017 | 48 | 0.0 | 0.0 | 0.00 | 0.00 | 0.00 | 64 | 1016.2 | |
| 20260504043057 | 48 | 0.0 | 0.0 | 0.00 | 0.00 | 0.00 | 63 | 1016.1 | |
| 20260504042017 | 48 | 0.0 | 0.0 | 0.00 | 0.00 | 0.00 | 63 | 1016.0 | |
| 20260504041017 | 48 | 0.0 | 0.0 | 0.00 | 0.00 | 0.00 | 62 | 1015.9 | |
| 20260504040016 | 48 | 0.0 | 0.0 | 0.00 | 0.00 | 0.00 | 60 | 1015.9 | |
| 20260504035016 | 49 | 0.0 | 0.0 | 0.00 | 0.00 | 0.00 | 59 | 1016.1 | |
| 20260504034016 | 49 | 0.0 | 0.0 | 0.00 | 0.00 | 0.00 | 58 | 1016.0 | |
| 20260504033037 | 49 | 0.0 | 0.0 | 0.00 | 0.00 | 0.00 | 57 | 1015.9 | |
| 20260504032037 | 50 | 0.0 | 0.0 | 0.00 | 0.00 | 0.00 | 56 | 1015.9 | |
| 20260504031017 | 50 | 0.0 | 0.0 | 0.00 | 0.00 | 0.00 | 55 | 1015.8 | |
| 20260504030016 | 51 | 0.0 | 0.0 | 0.00 | 0.00 | 0.00 | 52 | 1015.7 | |
| 20260504025017 | 51 | 0.0 | 0.0 | 0.00 | 0.00 | 0.00 | 51 | 1015.6 | |
| 20260504024016 | 51 | 0.0 | 0.0 | 0.00 | 0.00 | 0.00 | 49 | 1015.6 | |
| 20260504023016 | 52 | 0.0 | 0.0 | 0.00 | 0.00 | 0.00 | 49 | 1015.6 | |
| 20260504022017 | 52 | 0.0 | 0.0 | 0.00 | 0.00 | 0.00 | 48 | 1015.6 | |
| 20260504021016 | 53 | 0.0 | 0.0 | 0.00 | 0.00 | 0.00 | 47 | 1015.5 | |
| 20260504020018 | 53 | 0.0 | 0.0 | 0.00 | 0.00 | 0.00 | 44 | 1015.5 | |
| 20260504015018 | 54 | 0.0 | 0.0 | 0.00 | 0.00 | 0.00 | 44 | 1015.4 | |
| 20260504014018 | 54 | 0.0 | 0.0 | 0.00 | 0.00 | 0.00 | 43 | 1015.3 | |
| 20260504013016 | 55 | 0.0 | 0.0 | 0.00 | 0.00 | 0.00 | 41 | 1015.3 | |
| 20260504012018 | 56 | 0.0 | 0.0 | 0.00 | 0.00 | 0.00 | 41 | 1015.2 | |
| 20260504011018 | 57 | 0.0 | 0.0 | 0.00 | 0.00 | 0.00 | 39 | 1015.1 | |
| 20260504010016 | 58 | 0.0 | 0.0 | 0.00 | 0.00 | 0.00 | 37 | 1015.1 | |
| 20260504005038 | 58 | 0.0 | 0.0 | 0.00 | 0.00 | 0.00 | 36 | 1015.1 | |
| 20260504004018 | 59 | 0.0 | 0.0 | 0.00 | 0.00 | 0.00 | 34 | 1015.1 | |
| 20260504003018 | 60 | 0 | 0.0 | 0.9 | 0.00 | 0.00 | 0.00 | 32 | 1015.0 |
| 20260504002017 | 60 | 195 | 0.9 | 2.6 | 0.00 | 0.00 | 0.00 | 30 | 1015.0 |
| 20260504001016 | 61 | 201 | 0.0 | 1.7 | 0.00 | 0.00 | 0.00 | 30 | 1014.9 |
| 20260504000015 | 61 | 232 | 0.0 | 0.9 | 0.00 | 0.00 | 0.00 | 29 | 1014.8 |
| 20260503235017 | 61 | 207 | 0.9 | 1.7 | 0.00 | 0.00 | 0.00 | 29 | 1014.8 |
| 20260503234019 | 62 | 199 | 0.9 | 2.6 | 0.00 | 0.00 | 0.00 | 28 | 1014.7 |
| 20260503233017 | 62 | 257 | 0.9 | 2.6 | 0.00 | 0.00 | 0.00 | 27 | 1014.6 |
| 20260503232017 | 63 | 242 | 0.9 | 2.6 | 0.00 | 0.00 | 0.00 | 27 | 1014.6 |
| 20260503231017 | 63 | 251 | 0.9 | 2.6 | 0.00 | 0.00 | 0.00 | 27 | 1014.6 |
| 20260503230017 | 63 | 261 | 0.9 | 4.3 | 0.00 | 0.00 | 0.00 | 27 | 1014.6 |
| 20260503225016 | 64 | 205 | 1.7 | 7.8 | 0.00 | 0.00 | 0.00 | 26 | 1014.7 |
| 20260503224016 | 65 | 235 | 1.7 | 4.3 | 0.00 | 0.00 | 0.00 | 26 | 1014.7 |
| 20260503223016 | 65 | 205 | 1.7 | 5.2 | 0.00 | 0.00 | 0.00 | 26 | 1014.7 |
| 20260503222016 | 66 | 218 | 2.6 | 5.2 | 0.00 | 0.00 | 0.00 | 25 | 1014.7 |